Phil's Backyard

 Latitude S 29° 46' 26"    Longitude E 151° 07' 14"    Elevation 586 m

:now: :today: :yesterday: :daily data: :this month: :this year: :records: :monthly records:
:gauges: :graphs: :weatherzone: :forum: :dashboard: :webcam:
Legend:
Low (0-210)
Very High (490 - 630)

Moderate (210 - 350)
Extreme (630 - 800)

High (350 - 490)
Catastrophic (800+)


 
752.92
Date Temp. (°C) Wind Speed (km/h) Rain (mm) RH% Days Since Rain pwsFWI
Prediction is active (including today!), values are above red line.
16/11/19 32.00 18.00 0.00 0.11 13 800.24
15/11/19 30.00 18.00 0.00 0.14 12 731.74
14/11/19 28.00 13.00 0.00 0.12 11 704.66
13/11/19 28.00 16.00 0.00 0.07 10 821.99
12/11/19 32.00 24.00 0.00 0.09 9 874.54
11/11/19 30.60 12.90 0.00 0.13 8 752.92
10/11/19 27.20 14.50 0.00 0.19 7 754.88
09/11/19 21.90 22.50 0.00 0.11 6 757.28
08/11/19 31.70 24.10 0.00 0.09 5 651.30
07/11/19 32.10 19.30 0.00 0.10 4 514.36
06/11/19 28.60 12.90 0.00 0.14 3 447.84
05/11/19 21.30 25.70 0.00 0.22 2 360.20
04/11/19 28.10 16.10 0.00 0.28 1 314.64
03/11/19 31.50 14.50 2.00 0.34 0 329.35
02/11/19 28.90 12.90 0.00 0.33 2 430.20
01/11/19 30.80 14.50 0.00 0.22 1 476.59
31/10/19 29.10 11.30 3.40 0.32 0 603.56
30/10/19 26.70 14.50 0.00 0.44 4 661.95
29/10/19 29.40 9.70 0.00 0.25 3 688.22
28/10/19 30.10 19.30 0.00 0.13 2 699.15
27/10/19 30.10 14.50 0.00 0.06 1 656.92
26/10/19 32.20 25.70 0.20 0.20 0 618.73
25/10/19 30.70 12.90 0.00 0.25 9 542.54
24/10/19 31.20 11.30 0.00 0.18 8 574.86
23/10/19 30.40 9.70 0.00 0.15 7 581.82
22/10/19 28.80 16.10 0.00 0.20 6 698.66
21/10/19 27.60 12.90 0.00 0.17 5 595.89
20/10/19 27.40 17.70 0.00 0.13 4 614.52
19/10/19 27.40 17.70 0.00 0.08 3 566.37
18/10/19 28.10 12.90 0.00 0.06 2 486.86
17/10/19 32.60 24.10 0.00 0.20 1 393.87
16/10/19 34.10 14.50 1.40 0.23 0 263.21
15/10/19 31.90 14.50 0.00 0.28 3 206.60
14/10/19 27.20 12.90 0.00 0.30 2 186.33
13/10/19 24.10 9.70 0.00 0.31 1 298.19
12/10/19 20.60 16.10 1.60 0.44 0 491.10
11/10/19 20.80 16.10 20.20 0.44 0 592.62
10/10/19 23.60 9.70 6.40 0.26 0 664.81
09/10/19 24.90 14.50 0.00 0.13 17 769.16
08/10/19 31.50 24.10 0.00 0.20 16 756.17
07/10/19 35.70 20.90 0.00 0.13 15 647.66
06/10/19 33.40 12.90 0.00 0.18 14 503.46
05/10/19 31.20 9.70 0.00 0.17 13 486.17
04/10/19 30.10 14.50 0.00 0.18 12 539.27
03/10/19 28.20 11.30 0.00 0.22 11 562.20
02/10/19 27.70 11.30 0.00 0.16 10 566.06
01/10/19 24.70 16.10 0.00 0.31 9 560.71
30/09/19 26.10 16.10 0.00 0.15 8 541.12
29/09/19 26.90 20.90 0.00 0.14 7 501.71
28/09/19 28.00 19.30 0.00 0.14 6 475.01
27/09/19 26.50 14.50 0.00 0.28 5 348.82
26/09/19 24.10 14.50 0.00 0.24 4 357.78
25/09/19 24.20 11.30 0.00 0.26 3 365.57
24/09/19 24.80 9.70 0.00 0.11 2 401.36
23/09/19 25.50 17.70 0.00 0.12 1 391.92
22/09/19 27.70 17.70 1.40 0.36 0 431.39
21/09/19 27.40 16.10 0.00 0.30 41 541.03
20/09/19 27.60 14.50 0.00 0.30 40 512.18
19/09/19 26.10 17.70 0.00 0.27 39 558.70
18/09/19 23.90 11.30 0.00 0.32 38 560.14
17/09/19 24.70 20.90 0.00 0.23 37 576.63
16/09/19 28.40 16.10 0.00 0.11 36 512.50
15/09/19 27.60 8.00 0.00 0.08 35 459.49
14/09/19 27.20 17.70 0.00 0.04 34 477.92
13/09/19 26.40 14.50 0.00 0.10 33 426.05
12/09/19 23.10 14.50 0.00 0.23 32 406.56
11/09/19 22.80 8.00 0.00 0.17 31 550.99
10/09/19 19.40 16.10 0.00 0.19 30 634.51
09/09/19 15.60 27.40 0.00 0.24 29 697.98
08/09/19 19.20 20.90 0.00 0.23 28 727.47
07/09/19 18.80 22.50 0.00 0.27 27 739.49
06/09/19 30.70 25.70 0.00 0.08 26 717.58
05/09/19 29.80 16.10 0.00 0.10 25 549.89
04/09/19 29.20 17.70 0.00 0.14 24 457.82
03/09/19 26.80 16.10 0.00 0.08 23 380.16
02/09/19 24.80 16.10 0.00 0.16 22 313.19
01/09/19 23.70 11.30 0.00 0.24 21 275.22
31/08/19 21.70 9.70 0.00 0.17 20 285.44
30/08/19 20.40 8.00 0.00 0.21 19 298.14
29/08/19 20.20 11.30 0.00 0.13 18 303.44
28/08/19 20.90 12.90 0.00 0.40 17 291.44
27/08/19 25.10 9.70 0.00 0.23 16 314.82
26/08/19 25.20 11.30 0.00 0.15 15 311.87
25/08/19 23.80 12.90 0.00 0.27 14 297.80
24/08/19 22.80 9.70 0.00 0.32 13 296.16
23/08/19 20.70 9.70 0.00 0.25 12 324.21
22/08/19 19.30 20.90 0.00 0.33 11 353.42
21/08/19 19.60 14.50 0.00 0.31 10 342.22
20/08/19 18.60 14.50 0.00 0.22 9 331.13
19/08/19 17.20 17.70 0.00 0.21 8 316.08
18/08/19 25.30 12.90 0.00 0.21 7 282.09
17/08/19 23.90 12.90 0.00 0.14 6 235.08
16/08/19 22.20 12.90 0.00 0.24 5 208.01
15/08/19 20.30 11.30 0.00 0.34 4 221.37
14/08/19 21.30 9.70 0.00 0.30 3 245.70
13/08/19 20.20 6.40 0.00 0.28 2 312.37
12/08/19 15.60 9.70 0.00 0.43 1 289.61
11/08/19 12.20 22.50 0.60 0.38 0 311.36
10/08/19 14.90 27.40 0.00 0.28 3 310.96
09/08/19 17.30 24.10 0.00 0.36 2 277.42
08/08/19 21.20 25.70 0.00 0.21 1 246.61
07/08/19 20.60 12.90 1.20 0.33 0 201.60
06/08/19 21.10 11.30 0.00 0.25 15 231.00
05/08/19 21.70 9.70 0.00 0.28 14 230.98
04/08/19 21.60 8.00 0.00 0.17 13 228.53
03/08/19 20.10 9.70 0.00 0.32 12 224.38
02/08/19 20.30 11.30 0.00 0.31 11 219.14
01/08/19 20.00 11.30 0.00 0.33 10 219.51
31/07/19 21.40 12.90 0.00 0.34 9 214.53
30/07/19 19.10 12.90 0.00 0.39 8 201.90
29/07/19 19.90 9.70 0.00 0.31 7 205.02
28/07/19 20.60 8.00 0.00 0.31 6 230.77
27/07/19 20.20 11.30 0.00 0.28 5 215.91
26/07/19 20.40 11.30 0.00 0.42 4 209.44
25/07/19 20.70 9.70 0.00 0.33 3 216.06
24/07/19 20.60 11.30 0.00 0.29 2 222.78
23/07/19 21.90 14.50 0.00 0.24 1 220.09
22/07/19 19.30 6.40 0.40 0.55 0 189.53
21/07/19 20.40 11.30 0.00 0.39 13 230.08
20/07/19 20.40 9.70 0.00 0.16 12 231.20
19/07/19 18.50 11.30 0.00 0.18 11 219.79
18/07/19 16.40 16.10 0.00 0.38 10 228.51
17/07/19 17.90 11.30 0.00 0.39 9 223.58
16/07/19 18.40 14.50 0.00 0.34 8 251.22
15/07/19 13.60 20.90 0.00 0.46 7 229.55
14/07/19 13.20 14.50 0.00 0.35 6 213.34
13/07/19 16.30 22.50 0.00 0.41 5 183.79
12/07/19 18.40 12.90 0.00 0.39 4 133.69
11/07/19 18.50 20.90 0.00 0.36 3 142.65
10/07/19 15.70 12.90 0.00 0.57 2 135.22
09/07/19 17.30 9.70 0.00 0.48 1 180.03
08/07/19 16.10 8.00 4.40 0.71 0 209.55
07/07/19 21.80 12.90 2.60 0.36 0 265.90
06/07/19 18.70 19.30 0.00 0.48 18 295.24
05/07/19 21.70 17.70 0.00 0.45 17 287.80
04/07/19 22.10 19.30 0.00 0.36 16 273.58
03/07/19 23.20 11.30 0.00 0.28 15 246.83
02/07/19 21.40 11.30 0.00 0.32 14 244.97
01/07/19 21.80 9.70 0.00 0.35 13 253.42
30/06/19 21.70 12.90 0.00 0.45 12 260.05
29/06/19 21.90 12.90 0.00 0.45 11 259.87
28/06/19 20.80 14.50 0.00 0.44 10 242.62
27/06/19 21.50 16.10 0.00 0.45 9 227.05
26/06/19 21.20 16.10 0.00 0.40 8 214.85
25/06/19 19.10 16.10 0.00 0.43 7 193.78
24/06/19 17.00 14.50 0.00 0.33 6 182.25
23/06/19 16.70 8.00 0.00 0.31 5 169.72
22/06/19 16.60 9.70 0.00 0.31 4 172.64
21/06/19 14.80 14.50 0.00 0.30 3 186.59
20/06/19 18.30 11.30 0.00 0.40 2 173.37
19/06/19 16.50 12.90 0.00 0.38 1 143.92
18/06/19 19.80 11.30 0.20 0.50 0 141.92
17/06/19 16.70 11.30 0.00 0.42 3 154.37
16/06/19 18.80 14.50 0.00 0.36 2 160.10
15/06/19 20.60 11.30 0.00 0.60 1 143.14
14/06/19 19.80 8.00 3.00 0.57 0 132.61
13/06/19 22.20 11.30 0.00 0.52 8 137.31
12/06/19 21.60 11.30 0.00 0.39 7 154.29
11/06/19 22.20 9.70 0.00 0.39 6 152.14
10/06/19 20.70 11.30 0.00 0.56 5 142.44
09/06/19 17.80 3.20 0.00 0.66 4 126.75
08/06/19 15.20 4.80 0.00 0.72 3 121.33
07/06/19 22.10 14.50 0.00 0.39 2 115.70
06/06/19 19.30 11.30 0.00 0.32 1 103.84
05/06/19 16.30 12.90 0.60 0.52 0 95.47
04/06/19 11.10 12.90 0.20 0.72 0 110.28
03/06/19 14.60 16.10 1.60 0.64 0 147.01
02/06/19 13.80 11.30 8.80 0.68 0 169.55
01/06/19 22.60 9.70 0.00 0.32 28 252.26
31/05/19 15.10 12.90 0.00 0.39 27 254.87
30/05/19 14.30 16.10 0.00 0.28 26 240.93
29/05/19 16.70 16.10 0.00 0.40 25 233.74
28/05/19 14.90 12.90 0.00 0.35 24 232.07
27/05/19 19.30 17.70 0.00 0.26 23 235.77
26/05/19 22.40 11.30 0.00 0.35 22 207.18
25/05/19 21.80 4.80 0.00 0.44 21 194.12
24/05/19 23.80 8.00 0.00 0.33 20 220.48
23/05/19 24.80 8.00 0.00 0.28 19 216.75
22/05/19 23.50 9.70 0.00 0.41 18 219.12
21/05/19 24.50 8.00 0.00 0.37 17 227.52
20/05/19 22.90 8.00 0.00 0.38 16 247.21
19/05/19 23.60 11.30 0.00 0.37 15 249.93
18/05/19 22.80 8.00 0.00 0.35 14 261.07
17/05/19 23.30 11.30 0.00 0.39 13 253.87
16/05/19 23.40 14.50 0.00 0.49 12 240.72
15/05/19 24.30 12.90 0.00 0.34 11 260.55
14/05/19 25.00 8.00 0.00 0.38 10 243.03
13/05/19 24.00 14.50 0.00 0.38 9 259.79
12/05/19 21.50 6.40 0.00 0.31 8 239.86
11/05/19 15.20 16.10 0.00 0.51 7 256.25
10/05/19 22.10 22.50 0.00 0.47 6 270.02
09/05/19 21.90 9.70 0.00 0.31 5 205.74
08/05/19 20.60 16.10 0.00 0.37 4 169.65
07/05/19 21.20 9.70 0.00 0.29 3 163.08
06/05/19 21.30 11.30 0.00 0.30 2 161.84
05/05/19 19.50 14.50 0.00 0.36 1 164.69
04/05/19 20.80 16.10 1.80 0.48 0 200.66
03/05/19 22.20 11.30 14.00 0.60 0 236.87
02/05/19 27.30 9.70 0.00 0.38 16 317.55
01/05/19 23.90 12.90 0.00 0.55 15 321.81
30/04/19 25.10 11.30 0.00 0.39 14 326.66
29/04/19 27.40 11.30 0.00 0.29 13 311.82
28/04/19 25.30 9.70 0.00 0.22 12 290.24
27/04/19 26.90 11.30 0.00 0.09 11 300.59
26/04/19 27.20 11.30 0.00 0.40 10 307.48
25/04/19 27.40 8.00 0.00 0.31 9 331.66
24/04/19 24.30 9.70 0.00 0.49 8 358.78
23/04/19 24.10 12.90 0.00 0.51 7 382.02
22/04/19 26.20 14.50 0.00 0.39 6 396.85
21/04/19 28.10 16.10 0.00 0.34 5 401.31
20/04/19 27.70 16.10 0.00 0.38 4 371.37
19/04/19 29.60 12.90 0.00 0.36 3 335.10
18/04/19 27.90 11.30 0.00 0.36 2 313.84
17/04/19 27.20 11.30 0.00 0.34 1 299.25
16/04/19 26.60 14.50 0.20 0.35 0 301.94
15/04/19 25.80 11.30 0.00 0.31 13 326.82
14/04/19 25.80 8.00 0.00 0.27 12 370.81
13/04/19 26.20 9.70 0.00 0.27 11 400.62
12/04/19 27.10 8.00 0.00 0.29 10 407.11
11/04/19 26.60 12.90 0.00 0.36 9 420.09
10/04/19 27.70 14.50 0.00 0.28 8 407.35
09/04/19 29.60 17.70 0.00 0.34 7 394.95
08/04/19 30.40 11.30 0.00 0.29 6 359.42
07/04/19 29.40 9.70 0.00 0.30 5 288.91
06/04/19 27.50 11.30 0.00 0.34 4 267.05
05/04/19 28.10 9.70 0.00 0.38 3 261.17
04/04/19 27.70 12.90 0.00 0.31 2 164.80
03/04/19 28.70 11.30 0.00 0.30 1 147.58
02/04/19 26.00 16.10 1.60 0.47 0 200.80
01/04/19 25.40 8.00 0.00 0.33 2 210.64
31/03/19 20.80 14.50 0.00 0.30 1 213.48
30/03/19 26.10 19.30 20.60 0.51 0 260.70
29/03/19 31.30 14.50 10.00 0.33 0 399.75
28/03/19 30.10 16.10 0.00 0.36 2 495.95
27/03/19 23.70 14.50 0.00 0.57 1 477.30
26/03/19 27.70 11.30 0.40 0.54 0 530.00
25/03/19 31.30 14.50 0.80 0.42 0 564.81
24/03/19 35.60 16.10 0.00 0.30 1 585.64
23/03/19 34.60 16.10 0.20 0.30 0 499.28
22/03/19 32.10 11.30 0.00 0.35 5 335.12
21/03/19 32.90 12.90 0.00 0.30 4 264.02
20/03/19 32.10 11.30 0.00 0.32 3 280.91
19/03/19 30.20 16.10 0.00 0.30 2 293.00
18/03/19 28.30 9.70 0.00 0.39 1 403.43
17/03/19 27.70 20.90 8.00 0.55 0 512.50
16/03/19 31.40 19.30 3.80 0.36 0 545.92
15/03/19 31.20 16.10 0.00 0.26 4 638.72
14/03/19 31.90 12.90 0.00 0.29 3 616.79
13/03/19 35.60 16.10 0.00 0.13 2 624.34
12/03/19 33.10 17.70 0.00 0.26 1 365.82
11/03/19 35.30 20.90 1.80 0.27 0 426.20
10/03/19 35.30 17.70 0.00 0.28 1 412.37
09/03/19 34.40 11.30 1.00 0.29 0 364.80
08/03/19 34.20 14.50 0.00 0.39 1 472.24
07/03/19 35.30 24.10 20.80 0.31 0 550.43
06/03/19 34.90 12.90 0.00 0.26 25 627.16
05/03/19 32.80 9.70 0.00 0.25 24 640.89
04/03/19 33.80 12.90 0.00 0.27 23 659.71
03/03/19 31.60 16.10 0.00 0.34 22 636.53
02/03/19 31.30 19.30 0.00 0.37 21 636.32
01/03/19 32.30 16.10 0.00 0.26 20 656.30
28/02/19 31.10 17.70 0.00 0.24 19 658.64
27/02/19 31.20 14.50 0.00 0.30 18 672.46
26/02/19 31.40 11.30 0.00 0.26 17 774.76
25/02/19 32.30 14.50 0.00 0.29 16 871.83
24/02/19 30.60 20.90 0.00 0.28 15 908.75
23/02/19 30.90 17.70 0.00 0.25 14 899.65
22/02/19 31.40 20.90 0.00 0.29 13 894.25
21/02/19 36.90 20.90 0.00 0.25 12 866.86
20/02/19 38.70 16.10 0.00 0.21 11 781.56
19/02/19 38.10 12.90 0.00 0.20 10 727.99
18/02/19 37.30 11.30 0.00 0.14 9 841.90
17/02/19 34.70 12.90 0.00 0.20 8 910.89
16/02/19 33.80 12.90 0.00 0.19 7 936.05
15/02/19 33.30 14.50 0.00 0.25 6 934.53
14/02/19 33.20 17.70 0.00 0.32 5 713.28
13/02/19 37.30 22.50 0.00 0.12 4 720.08
12/02/19 35.50 19.30 0.00 0.13 3 572.80
11/02/19 34.60 14.50 0.00 0.12 2 526.36
10/02/19 34.20 11.30 0.00 0.10 1 635.95
09/02/19 34.40 29.00 7.20 0.33 0 718.54
08/02/19 35.90 14.50 0.00 0.24 11 770.66
07/02/19 32.30 17.70 0.00 0.38 10 775.34
06/02/19 34.60 19.30 0.00 0.30 9 771.41
05/02/19 34.80 17.70 0.00 0.28 8 705.57
04/02/19 35.30 14.50 0.00 0.26 7 691.23
03/02/19 34.60 14.50 0.00 0.30 6 707.04
02/02/19 34.30 17.70 0.00 0.29 5 714.19
01/02/19 33.20 16.10 0.00 0.37 4 577.50
31/01/19 35.40 9.70 0.00 0.25 3 540.03
30/01/19 35.40 14.50 0.00 0.23 2 532.18
29/01/19 37.40 14.50 0.00 0.25 1 521.66
28/01/19 37.50 12.90 0.20 0.28 0 381.38
27/01/19 36.90 12.90 1.60 0.33 0 485.80
26/01/19 37.10 8.00 0.00 0.34 2 541.68
25/01/19 37.60 8.00 0.00 0.26 1 366.42
24/01/19 36.60 12.90 0.20 0.25 0 288.78
23/01/19 33.20 24.10 4.80 0.40 0 363.79
22/01/19 35.10 22.50 0.40 0.33 0 377.81
21/01/19 34.10 17.70 0.00 0.43 1 605.72
20/01/19 38.80 17.70 8.20 0.30 0 554.05
19/01/19 40.20 20.90 3.60 0.22 0 742.62
18/01/19 38.80 11.30 0.00 0.23 3 792.83
17/01/19 37.50 9.70 0.00 0.30 2 840.70
16/01/19 40.10 25.70 0.00 0.24 1 855.66
15/01/19 39.40 24.10 2.40 0.21 0 597.76
14/01/19 37.80 11.30 0.00 0.16 4 508.69
13/01/19 38.40 14.50 0.00 0.14 3 461.55
12/01/19 37.30 17.70 0.00 0.25 2 411.17
11/01/19 35.10 12.90 0.00 0.29 1 506.18
10/01/19 37.40 17.70 21.00 0.26 0 575.49
09/01/19 30.60 8.00 0.00 0.39 5 406.79
08/01/19 31.40 12.90 0.00 0.34 4 474.12
07/01/19 34.10 14.50 0.00 0.23 3 395.02
06/01/19 37.50 16.10 0.00 0.22 2 274.80
05/01/19 35.30 12.90 0.00 0.20 1 323.31
04/01/19 35.80 20.90 7.60 0.32 0 366.56
03/01/19 35.90 12.90 0.00 0.27 1 423.24
02/01/19 34.40 17.70 2.20 0.30 0 488.45
01/01/19 35.20 16.10 1.20 0.26 0 614.55
31/12/18 35.60 9.70 0.00 0.17 9 676.52
30/12/18 34.40 12.90 0.00 0.24 8 690.18
29/12/18 34.50 12.90 0.00 0.21 7 683.40
28/12/18 35.80 11.30 0.00 0.17 6 679.76
27/12/18 35.60 12.90 0.00 0.16 5 682.45
26/12/18 35.50 12.90 0.00 0.19 4 759.25
25/12/18 33.30 14.50 0.00 0.27 3 637.67
24/12/18 31.10 14.50 0.00 0.23 2 646.62
23/12/18 30.70 14.50 0.00 0.15 1 644.13
22/12/18 31.30 14.50 0.20 0.14 0 603.62
21/12/18 38.40 19.30 0.80 0.22 0 489.88
20/12/18 37.10 38.60 2.40 0.31 0 454.12
19/12/18 35.90 14.50 0.00 0.31 3 289.34
18/12/18 35.40 12.90 0.00 0.33 2 170.31
17/12/18 33.50 9.70 0.00 0.31 1 180.88
16/12/18 31.40 20.90 3.00 0.50 0 241.05
15/12/18 33.60 19.30 13.20 0.35 0 332.66
14/12/18 31.10 16.10 6.40 0.51 0 394.05
13/12/18 32.40 20.90 15.80 0.43 0 494.77
12/12/18 33.40 16.10 0.00 0.33 14 568.69
11/12/18 31.30 12.90 0.00 0.30 13 542.68
10/12/18 34.30 12.90 0.00 0.31 12 566.97
09/12/18 34.40 9.70 0.00 0.23 11 596.75
08/12/18 31.30 12.90 0.00 0.27 10 627.12
07/12/18 28.90 17.70 0.00 0.30 9 790.00
06/12/18 28.40 16.10 0.00 0.31 8 810.17
05/12/18 30.70 17.70 0.00 0.31 7 822.19
04/12/18 31.80 16.10 0.00 0.16 6 791.16
03/12/18 30.70 14.50 0.00 0.12 5 781.80
02/12/18 36.50 24.10 0.00 0.15 4 777.00
01/12/18 32.40 14.50 0.00 0.15 3 625.74
30/11/18 29.40 16.10 0.00 0.25 2 592.73
29/11/18 26.10 17.70 0.00 0.35 1 575.18
28/11/18 26.40 27.40 0.60 0.37 0 575.46
27/11/18 31.30 16.10 0.40 0.26 0 548.79
26/11/18 28.20 16.10 0.00 0.19 1 349.26
25/11/18 26.90 17.70 0.20 0.30 0 340.62
24/11/18 23.90 19.30 0.00 0.28 3 324.19
23/11/18 21.90 20.90 0.00 0.28 2 327.05
22/11/18 23.90 22.50 0.00 0.31 1 429.33
21/11/18 23.10 14.50 53.60 0.70 0 462.03
20/11/18 28.90 11.30 7.60 0.40 0 547.09
19/11/18 28.10 14.50 0.20 0.38 0 587.58
18/11/18 28.40 17.70 0.00 0.37 11 616.17
17/11/18 32.60 24.10 0.00 0.23 10 619.10
16/11/18 32.70 14.50 0.00 0.18 9 511.61
15/11/18 31.80 11.30 0.00 0.29 8 445.50
14/11/18 28.40 11.30 0.00 0.33 7 405.46
13/11/18 29.90 12.90 0.00 0.21 6 398.91
12/11/18 30.30 12.90 0.00 0.19 5 259.22
11/11/18 28.40 12.90 0.00 0.24 4 363.77
10/11/18 27.40 9.70 0.00 0.26 3 461.63
09/11/18 25.40 8.00 0.00 0.30 2 531.52
08/11/18 21.80 14.50 0.00 0.30 1 664.85
07/11/18 35.40 22.50 17.60 0.31 0 766.64
06/11/18 37.90 19.30 0.40 0.23 0 817.59
05/11/18 36.70 17.70 0.00 0.20 7 695.38
04/11/18 34.80 12.90 0.00 0.14 6 574.41
03/11/18 33.70 16.10 0.00 0.30 5 486.59
02/11/18 31.70 12.90 0.00 0.20 4 432.01
01/11/18 33.90 12.90 0.00 0.19 3 425.91
31/10/18 31.30 9.70 0.00 0.25 2 433.86
30/10/18 29.60 9.70 0.00 0.32 1 366.51
29/10/18 26.70 8.00 0.40 0.35 0 499.49
28/10/18 27.60 11.30 0.00 0.23 2 519.04
27/10/18 30.10 12.90 0.00 0.17 1 497.78
26/10/18 30.10 16.10 0.20 0.13 0 453.59
25/10/18 31.90 16.10 1.80 0.34 0 384.44
24/10/18 33.10 22.50 0.60 0.17 0 379.74
23/10/18 29.90 9.70 0.00 0.34 3 244.27
22/10/18 29.40 8.00 0.00 0.33 2 189.37
21/10/18 24.80 14.50 0.00 0.47 1 210.54
20/10/18 29.50 24.10 3.00 0.41 0 287.83
19/10/18 28.10 11.30 0.00 0.47 1 285.30
18/10/18 27.20 14.50 0.20 0.52 0 266.22
17/10/18 28.50 16.10 1.80 0.45 0 296.35
16/10/18 27.80 16.10 0.00 0.45 3 219.13
15/10/18 25.80 19.30 0.00 0.47 2 152.11
14/10/18 23.60 19.30 0.00 0.51 1 163.57
13/10/18 18.90 16.10 0.80 0.61 0 156.32
12/10/18 21.30 19.30 0.40 0.53 0 220.83
11/10/18 22.90 17.70 22.00 0.52 0 217.95
10/10/18 29.70 17.70 3.40 0.32 0 225.08
09/10/18 27.40 14.50 0.00 0.24 2 176.99
08/10/18 26.20 9.70 0.00 0.26 1 150.95
07/10/18 24.60 11.30 0.20 0.34 0 160.21
06/10/18 23.00 9.70 0.60 0.50 0 181.31
05/10/18 21.50 9.70 14.80 0.61 0 219.04
04/10/18 22.50 11.30 2.20 0.47 0 311.97
03/10/18 26.20 11.30 0.00 0.28 5 300.68
02/10/18 27.50 9.70 0.00 0.17 4 287.65
01/10/18 23.80 9.70 0.00 0.30 3 184.49
30/09/18 23.20 16.10 0.00 0.36 2 143.55
29/09/18 26.00 17.70 0.00 0.30 1 84.10
28/09/18 27.60 12.90 3.60 0.26 0 106.55
27/09/18 24.40 9.70 0.00 0.27 1 156.78
26/09/18 22.10 12.90 14.40 0.52 0 180.96
25/09/18 19.10 12.90 2.80 0.52 0 259.65
24/09/18 26.20 17.70 2.60 0.28 0 378.18
23/09/18 25.90 12.90 0.00 0.17 16 408.43
22/09/18 23.40 9.70 0.00 0.26 15 373.53
21/09/18 23.30 11.30 0.00 0.11 14 389.26
20/09/18 21.10 17.70 0.00 0.14 13 438.54
19/09/18 27.40 17.70 0.00 0.31 12 436.80
18/09/18 23.90 14.50 0.00 0.33 11 393.36
17/09/18 21.40 9.70 0.00 0.24 10 366.82
16/09/18 18.10 17.70 0.00 0.21 9 363.46
15/09/18 28.80 17.70 0.00 0.23 8 356.73
14/09/18 28.30 12.90 0.00 0.24 7 304.21
13/09/18 26.60 9.70 0.00 0.31 6 292.37
12/09/18 23.80 9.70 0.00 0.44 5 180.46
11/09/18 24.40 8.00 0.00 0.28 4 182.46
10/09/18 24.80 11.30 0.00 0.26 3 146.34
09/09/18 20.40 14.50 0.00 0.19 2 93.12
08/09/18 22.60 19.30 0.00 0.39 1 100.36
07/09/18 21.80 20.90 10.40 0.54 0 94.15
06/09/18 21.80 12.90 0.20 0.48 0 117.98
05/09/18 20.60 16.10 1.20 0.43 0 64.71
04/09/18 19.40 17.70 6.20 0.45 0 138.67
03/09/18 20.20 19.30 3.00 0.37 0 200.27
02/09/18 19.70 14.50 0.00 0.36 1 216.15
01/09/18 19.40 16.10 0.20 0.44 0 245.37
31/08/18 22.40 25.70 5.60 0.42 0 199.51
30/08/18 21.70 17.70 0.00 0.11 2 206.85
29/08/18 18.10 14.50 0.00 0.21 1 92.06
28/08/18 18.90 14.50 0.20 0.31 0 80.92
27/08/18 18.70 12.90 0.00 0.42 1 103.92
26/08/18 16.30 16.10 9.60 0.70 0 117.96
25/08/18 11.20 9.70 26.20 0.87 0 156.94
24/08/18 22.50 17.70 18.40 0.33 0 233.15
23/08/18 19.90 9.70 0.00 0.17 17 299.34
22/08/18 17.30 11.30 0.00 0.25 16 331.28
21/08/18 16.50 14.50 0.00 0.24 15 369.99
20/08/18 14.80 16.10 0.00 0.19 14 402.20
19/08/18 14.90 20.90 0.00 0.21 13 413.07
18/08/18 19.90 19.30 0.00 0.21 12 398.79
17/08/18 20.60 17.70 0.00 0.18 11 380.23
16/08/18 22.60 16.10 0.00 0.17 10 362.75
15/08/18 23.30 14.50 0.00 0.10 9 319.62
14/08/18 22.80 11.30 0.00 0.11 8 276.20
13/08/18 16.40 16.10 0.00 0.29 7 255.19
12/08/18 14.60 19.30 0.00 0.17 6 248.51
11/08/18 20.80 17.70 0.00 0.38 5 157.51
10/08/18 20.80 8.00 0.00 0.21 4 102.72
09/08/18 19.30 9.70 0.00 0.26 3 101.38
08/08/18 16.90 12.90 0.00 0.28 2 68.32
07/08/18 14.80 17.70 0.00 0.38 1 106.99
06/08/18 16.20 17.70 8.40 0.70 0 106.93
05/08/18 23.50 16.10 1.20 0.27 0 173.27
04/08/18 18.20 11.30 0.00 0.35 1 171.22
03/08/18 20.60 17.70 2.00 0.34 0 167.86
02/08/18 21.20 9.70 0.00 0.21 4 185.30
01/08/18 18.70 9.70 0.00 0.25 3 229.68
31/07/18 18.70 11.30 0.00 0.20 2 248.82
30/07/18 16.00 12.90 0.00 0.34 1 263.21
29/07/18 17.10 9.70 2.60 0.70 0 277.11
28/07/18 23.60 9.70 0.60 0.26 0 306.09
27/07/18 22.90 19.30 0.00 0.22 15 315.56
26/07/18 21.70 12.90 0.00 0.23 14 263.84
25/07/18 22.80 12.90 0.00 0.24 13 276.14
24/07/18 22.30 9.70 0.00 0.23 12 282.81
23/07/18 18.30 12.90 0.00 0.36 11 290.42
22/07/18 16.90 12.90 0.00 0.27 10 291.98
21/07/18 14.90 12.90 0.00 0.24 9 298.75
20/07/18 18.70 20.90 0.00 0.28 8 297.60
19/07/18 21.80 14.50 0.00 0.18 7 261.84
18/07/18 20.40 12.90 0.00 0.21 6 222.99
17/07/18 18.60 11.30 0.00 0.23 5 206.87
16/07/18 17.70 14.50 0.00 0.25 4 185.10
15/07/18 16.70 11.30 0.00 0.23 3 161.49
14/07/18 16.60 9.70 0.00 0.18 2 151.00
13/07/18 14.20 11.30 0.00 0.34 1 145.45
12/07/18 17.80 14.50 0.40 0.43 0 175.08
11/07/18 18.10 6.40 0.00 0.38 5 155.79
10/07/18 17.70 8.00 0.00 0.34 4 165.06
09/07/18 16.10 11.30 0.00 0.43 3 181.03
08/07/18 14.20 12.90 0.00 0.39 2 177.83
07/07/18 18.20 19.30 0.00 0.32 1 130.07
06/07/18 17.60 12.90 0.60 0.82 0 95.66
05/07/18 22.30 11.30 0.40 0.56 0 86.34
04/07/18 22.70 14.50 0.00 0.52 1 79.06
03/07/18 19.70 9.70 0.20 0.52 0 55.93
02/07/18 14.10 6.40 8.00 0.83 0 35.77
01/07/18 12.90 4.80 29.00 0.94 0 74.71
30/06/18 20.60 8.00 3.00 0.40 0 110.75
29/06/18 17.70 8.00 0.00 0.43 1 132.36
28/06/18 18.20 9.70 0.20 0.60 0 139.39
27/06/18 17.50 11.30 3.00 0.54 0 153.80
26/06/18 19.90 11.30 0.00 0.24 17 181.72
25/06/18 19.10 8.00 0.00 0.30 16 178.52
24/06/18 19.60 9.70 0.00 0.27 15 173.49
23/06/18 18.30 9.70 0.00 0.35 14 157.43
22/06/18 19.70 6.40 0.00 0.31 13 167.59
21/06/18 19.40 6.40 0.00 0.26 12 184.34
20/06/18 18.00 14.50 0.00 0.37 11 203.50
19/06/18 12.90 14.50 0.00 0.52 10 198.43
18/06/18 11.40 14.50 0.00 0.56 9 215.62
17/06/18 12.80 20.90 0.00 0.39 8 228.44
16/06/18 17.00 16.10 0.00 0.39 7 211.67
15/06/18 16.90 16.10 0.00 0.33 6 201.62
14/06/18 17.30 12.90 0.00 0.34 5 182.27
13/06/18 19.30 14.50 0.00 0.40 4 173.03
12/06/18 20.60 9.70 0.00 0.34 3 192.68
11/06/18 19.60 8.00 0.00 0.40 2 213.62
10/06/18 21.30 9.70 0.00 0.41 1 226.73
09/06/18 20.30 11.30 1.00 0.57 0 224.71
08/06/18 21.20 8.00 0.40 0.37 0 241.92
07/06/18 20.20 22.50 0.00 0.44 30 287.83
06/06/18 20.50 19.30 0.00 0.43 29 256.53
05/06/18 20.20 12.90 0.00 0.41 28 239.21
04/06/18 19.40 9.70 0.00 0.36 27 252.40
03/06/18 22.40 11.30 0.00 0.34 26 249.78
02/06/18 16.80 17.70 0.00 0.39 25 228.38
01/06/18 18.20 11.30 0.00 0.38 24 223.34
31/05/18 15.20 17.70 0.00 0.40 23 238.02
30/05/18 19.70 16.10 0.00 0.32 22 246.15
29/05/18 21.80 9.70 0.00 0.48 21 233.03
28/05/18 22.00 6.40 0.00 0.41 20 239.09
27/05/18 22.10 11.30 0.00 0.38 19 255.51
26/05/18 22.50 12.90 0.00 0.36 18 273.45
25/05/18 24.00 11.30 0.00 0.32 17 264.98
24/05/18 22.20 11.30 0.00 0.37 16 269.54
23/05/18 24.00 8.00 0.00 0.30 15 272.11
22/05/18 19.50 12.90 0.00 0.36 14 262.81
21/05/18 20.60 16.10 0.00 0.28 13 259.48
20/05/18 18.10 12.90 0.00 0.30 12 257.48
19/05/18 22.80 11.30 0.00 0.18 11 266.94
18/05/18 20.60 11.30 0.00 0.24 10 256.31
17/05/18 21.60 6.40 0.00 0.24 9 240.68
16/05/18 21.80 8.00 0.00 0.16 8 252.75
15/05/18 21.60 12.90 0.00 0.17 7 320.13
14/05/18 22.70 14.50 0.00 0.40 6 321.67
13/05/18 19.90 14.50 0.00 0.38 5 316.27
12/05/18 17.30 12.90 0.00 0.47 4 328.63
11/05/18 14.90 16.10 0.00 0.30 3 364.95
10/05/18 25.40 22.50 0.00 0.29 2 366.02
09/05/18 24.20 14.50 0.00 0.34 1 299.60
08/05/18 23.60 12.90 0.20 0.42 0 277.11
07/05/18 24.20 14.50 0.00 0.37 20 294.76
06/05/18 24.10 14.50 0.00 0.26 19 280.17
05/05/18 25.10 8.00 0.00 0.21 18 260.97
04/05/18 25.70 11.30 0.00 0.49 17 256.88
03/05/18 25.00 9.70 0.00 0.41 16 263.50
02/05/18 24.60 11.30 0.00 0.41 15 271.86
01/05/18 24.90 9.70 0.00 0.32 14 294.49
30/04/18 23.40 11.30 0.00 0.29 13 298.10
29/04/18 23.30 9.70 0.00 0.33 12 293.50
28/04/18 24.10 12.90 0.00 0.41 11 315.11
27/04/18 25.20 11.30 0.00 0.37 10 336.95
26/04/18 26.90 12.90 0.00 0.29 9 338.94
25/04/18 26.50 11.30 0.00 0.41 8 313.75
24/04/18 24.30 11.30 0.00 0.38 7 303.74
27/04/18 25.30 14.50 0.00 0.36 6 342.93
26/04/18 26.90 12.90 0.00 0.25 5 282.22
25/04/18 27.10 11.30 0.00 0.40 4 212.80
24/04/18 24.80 9.70 0.00 0.33 3 219.20
23/04/18 25.40 9.70 0.00 0.41 2 240.31
22/04/18 26.40 17.70 0.00 0.32 1 302.77
21/04/18 26.90 8.00 1.40 0.39 0 294.12
20/04/18 22.00 6.40 10.80 0.58 0 344.64
19/04/18 28.70 11.30 0.00 0.37 5 344.92
18/04/18 27.80 14.50 0.00 0.42 4 342.54
17/04/18 29.70 16.10 0.00 0.25 3 323.59
16/04/18 27.20 11.30 0.00 0.29 2 291.41
15/04/18 25.70 14.50 0.00 0.34 1 340.61
14/04/18 28.30 17.70 2.20 0.42 0 394.41
13/04/18 28.00 11.30 0.00 0.36 17 419.56
12/04/18 26.70 9.70 0.00 0.34 16 440.25
11/04/18 30.60 11.30 0.00 0.30 15 502.33
10/04/18 32.10 14.50 0.00 0.22 14 504.41
09/04/18 31.10 11.30 0.00 0.23 13 505.31
08/04/18 29.80 8.00 0.00 0.29 12 515.31
07/04/18 30.20 12.90 0.00 0.31 11 543.30
06/04/18 31.20 14.50 0.00 0.18 10 534.18
05/04/18 29.30 12.90 0.00 0.31 9 534.86
04/04/18 29.20 20.90 0.00 0.35 8 563.46
03/04/18 30.70 14.50 0.00 0.30 7 533.53
02/04/18 31.60 11.30 0.00 0.27 6 499.05
01/04/18 31.30 9.70 0.00 0.23 5 365.54
31/03/18 31.00 17.70 0.00 0.31 4 320.69
30/03/18 33.40 12.90 0.00 0.23 3 262.04
29/03/18 31.50 12.90 0.00 0.32 2 181.30
28/03/18 31.10 9.70 0.00 0.36 1 208.91
27/03/18 32.80 14.50 7.80 0.40 0 244.19
26/03/18 28.80 6.40 0.00 0.52 2 296.35
25/03/18 30.60 9.70 0.00 0.39 1 375.72
24/03/18 28.80 6.40 0.20 0.56 0 433.27
25/03/18 30.60 9.70 0.00 0.37 1 551.14
24/03/18 30.90 11.30 0.20 0.37 0 592.03
23/03/18 29.10 16.10 0.00 0.39 2 603.49
22/03/18 28.90 20.90 0.00 0.37 1 598.73
21/03/18 31.40 17.70 0.20 0.32 0 564.00
20/03/18 36.20 14.50 0.20 0.20 0 535.57
19/03/18 35.30 11.30 0.00 0.26 13 497.62
18/03/18 33.70 9.70 0.00 0.28 12 477.88
17/03/18 34.00 9.70 0.00 0.27 11 448.21
16/03/18 33.20 9.70 0.00 0.28 10 416.88
15/03/18 32.10 11.30 0.00 0.24 9 412.13
14/03/18 30.70 14.50 0.00 0.31 8 412.18
13/03/18 31.40 11.30 0.00 0.26 7 385.55
12/03/18 30.80 6.40 0.00 0.22 6 382.19
11/03/18 29.80 8.00 0.00 0.33 5 336.94
10/03/18 30.30 11.30 0.00 0.31 4 336.30
09/03/18 29.90 14.50 0.00 0.32 3 268.13
08/03/18 26.90 14.50 0.00 0.39 2 184.12
07/03/18 27.60 17.70 0.00 0.43 1 238.07
06/03/18 22.10 11.30 3.60 0.62 0 266.93
05/03/18 30.10 11.30 0.80 0.53 0 310.15
04/03/18 23.70 9.70 1.40 0.79 0 390.03
03/03/18 33.50 19.30 30.00 0.52 0 510.68
02/03/18 35.30 14.50 0.00 0.29 7 552.33
01/03/18 34.20 12.90 0.00 0.33 6 498.30
28/02/18 31.80 9.70 0.00 0.40 5 340.02
27/02/18 35.30 14.50 0.00 0.28 4 348.88
01/03/18 34.30 12.90 0.00 0.32 3 228.73
28/02/18 32.30 11.30 0.00 0.39 2 133.01
27/02/18 30.90 11.30 0.00 0.36 1 151.93
26/02/18 29.60 12.90 5.60 0.61 0 181.65
25/02/18 31.80 11.30 24.60 0.52 0 277.55
24/02/18 29.80 14.50 1.60 0.58 0 193.27
23/02/18 30.90 16.10 1.40 0.47 0 344.47
22/02/18 31.40 14.50 0.00 0.35 2 437.99
21/02/18 30.60 14.50 0.00 0.36 1 518.44
20/02/18 29.70 17.70 0.20 0.37 0 689.38
19/02/18 33.20 19.30 11.20 0.40 0 881.53
18/02/18 35.90 16.10 0.00 0.27 16 1099.58
17/02/18 35.60 14.50 0.00 0.23 15 1131.27
16/02/18 36.40 16.10 0.00 0.14 14 1172.41
15/02/18 38.40 12.90 0.00 0.08 13 1177.46
14/02/18 37.90 22.50 0.00 0.17 12 1133.40
13/02/18 38.70 20.90 0.00 0.16 11 970.72
12/02/18 38.10 16.10 0.00 0.20 10 838.93
11/02/18 36.40 17.70 0.00 0.20 9 761.67
10/02/18 37.10 17.70 0.00 0.22 8 685.99
09/02/18 35.70 12.90 0.00 0.22 7 605.58
08/02/18 33.70 9.70 0.00 0.17 6 588.45
07/02/18 33.70 12.90 0.00 0.18 5 525.52
06/02/18 33.10 12.90 0.00 0.27 4 391.92
05/02/18 31.40 12.90 0.00 0.18 3 381.18
04/02/18 30.60 16.10 0.00 0.33 2 372.53
03/02/18 28.90 17.70 0.00 0.28 1 369.04
02/02/18 22.10 9.70 0.20 0.57 0 412.75
01/02/18 25.40 11.30 6.80 0.50 0 559.39
31/01/18 33.80 12.90 0.00 0.37 6 681.83
30/01/18 34.80 9.70 0.00 0.17 5 595.49
29/01/18 34.90 9.70 0.00 0.15 4 505.11
29/01/18 32.70 19.30 0.00 0.35 3 538.59
28/01/18 34.40 20.90 0.00 0.31 2 534.18
27/01/18 35.30 16.10 0.00 0.30 1 515.60
26/01/18 33.60 22.50 1.20 0.38 0 565.07
25/01/18 35.80 24.10 21.80 0.32 0 749.14
24/01/18 37.30 12.90 0.00 0.23 13 840.13
23/01/18 37.90 11.30 0.00 0.19 12 837.24
22/01/18 38.10 12.90 0.00 0.19 11 850.24
21/01/18 36.60 11.30 0.00 0.23 10 797.25
20/01/18 39.60 14.50 0.00 0.08 9 781.84
19/01/18 38.40 11.30 0.00 0.07 8 709.30
18/01/18 35.80 11.30 0.00 0.06 7 720.48
17/01/18 31.80 16.10 0.00 0.11 6 668.55
16/01/18 31.60 11.30 0.00 0.17 5 533.10
15/01/18 28.70 14.50 0.00 0.19 4 445.09
14/01/18 27.80 19.30 0.00 0.16 3 446.70
13/01/18 34.80 19.30 0.00 0.28 2 415.26
12/01/18 36.30 9.70 0.00 0.37 1 351.67
11/01/18 33.50 20.90 3.00 0.33 0 420.66
10/01/18 37.20 24.10 7.40 0.28 0 497.25
09/01/18 36.20 11.30 0.20 0.30 0 507.99
08/01/18 37.60 9.70 0.00 0.28 6 589.06
07/01/18 37.60 9.70 0.00 0.27 5 497.64
06/01/18 36.30 8.00 0.00 0.26 4 508.35
05/01/18 34.60 9.70 0.00 0.29 3 567.93
04/01/18 33.50 11.30 0.00 0.28 2 526.84
03/01/18 34.20 19.30 0.00 0.18 1 441.83
02/01/18 34.80 16.10 1.40 0.24 0 411.33
01/01/18 34.60 12.90 0.00 0.27 3 461.52
31/12/17 35.70 14.50 0.00 0.22 2 242.02
30/12/17 29.60 11.30 0.00 0.62 1 224.16
29/12/17 33.20 9.70 4.40 0.36 0 375.34
28/12/17 32.70 11.30 0.00 0.35 2 424.00
27/12/17 32.40 17.70 0.00 0.33 1 379.81
26/12/17 32.60 19.30 11.00 0.44 0 269.74
25/12/17 35.60 17.70 26.00 0.36 0 410.74
24/12/17 37.10 16.10 0.00 0.23 3 460.58
23/12/17 34.70 9.70 0.00 0.27 2 505.71
22/12/17 26.80 9.70 0.00 0.57 1 253.53
21/12/17 33.30 19.30 8.00 0.42 0 405.40
20/12/17 38.40 12.90 0.00 0.24 3 518.33
19/12/17 35.90 11.30 0.00 0.32 2 471.44
18/12/17 36.10 25.70 0.00 0.34 1 666.72
17/12/17 35.30 30.60 20.40 0.35 0 629.75
16/12/17 36.60 16.10 0.00 0.27 8 666.73
15/12/17 36.60 16.10 0.00 0.25 7 625.63
14/12/17 35.60 9.70 0.00 0.23 6 589.71
13/12/17 34.70 9.70 0.00 0.21 5 502.03
12/12/17 33.90 11.30 0.00 0.24 4 501.54
11/12/17 33.40 12.90 0.00 0.21 3 489.09
10/12/17 31.90 14.50 0.00 0.24 2 463.43
09/12/17 31.00 14.50 0.00 0.13 1 412.04
08/12/17 32.00 16.10 4.20 0.29 0 424.38
07/12/17 31.00 11.30 0.00 0.16 5 302.94
06/12/17 26.80 16.10 0.00 0.30 4 287.83
05/12/17 27.80 14.50 0.00 0.26 3 136.59
04/12/17 28.30 9.70 0.00 0.28 2 126.60
03/12/17 27.00 14.50 0.00 0.30 1 236.59
02/12/17 26.20 16.10 5.80 0.61 0 276.06
CumulusUtils Version 1.8.4 - generated at 12/11/2019 09:00 - © Hans Rottier
Science background here. - NOTE: Behavioural testing still under way!
:now: :today: :yesterday: :daily data: :this month: :this year: :records: :monthly records:
:gauges: :graphs: :weatherzone: :forum: :dashboard: :webcam:
:historic data:


Page updated daily at 9:00 AM
powered by CumulusMX v3.0.1 (3052) Valid HTML | Valid CSS
this page by Hans Rottier from the Cumulus Forum

Cumulus Top Weather Sites